Flag for U.S.A. Weather past 2 weeks in Ontario, California, U.S.A.

Now
66 °F

Clear.


Feels Like: 66 °F
Forecast: 56 / 75 °F
Wind: No wind

Location: Ontario International Airport

Current Time: Oct 25, 2014 at 11:25:43 PM

Latest Report: Oct 25, 2014 at 10:53 PM


Visibility: 10 mi

Pressure: 29.99 "Hg

Humidity: 56%

Dew point: 50 °F

Location of OntarioLocation

Historic Weather in Ontario — Graph

°F

Ontario temperature yesterday

Maximum temperature yesterday: 92 °F (at 1:53 PM)
Minimum temperature yesterday: 61 °F (at 4:53 AM)
Average temperature yesterday: 75 °F

Past Weeks' High & Low Weather Summary

 TemperatureHumidityPressure
High92 °F (Oct 24, 1:53 PM)97% (Oct 20, 8:53 AM)30.02 "Hg (Oct 20, 8:53 AM)
Low58 °F (Oct 17, 6:53 AM)11% (Oct 24, 1:53 PM)29.79 "Hg (Oct 18, 4:53 PM)
Average70 °F60%29.91 "Hg
* Reported Oct 10 9:53 PM — Oct 25 9:53 PM, Ontario, Weather by CustomWeather, © 2014

Note: Actual official high and low records may vary slightly from our data, if they occured in-between our weather recording intervals... More about our weather records

Advertising

Ontario weather history for previous 24 hours

 ConditionsComfort  
Time TempWeatherWind HumidityBarometerVisibility
9:53 PM
Oct 25
66 °FClear.5 mph56%29.99 "Hg10 mi
8:53 PM68 °FClear.7 mph53%29.97 "Hg10 mi
7:53 PM71 °FPassing clouds.10 mph49%29.96 "Hg10 mi
6:53 PM74 °FPassing clouds.14 mph40%29.95 "Hg10 mi
5:53 PM78 °FPassing clouds.10 mph24%29.94 "Hg10 mi
4:53 PM82 °FPassing clouds.16 mph26%29.95 "Hg10 mi
3:53 PM84 °FPassing clouds.15 mph26%29.96 "Hg10 mi
2:53 PM84 °FPassing clouds.13 mph24%29.96 "Hg10 mi
1:53 PM86 °FPartly sunny.14 mph17%29.97 "Hg10 mi
12:53 PM84 °FScattered clouds.13 mph19%29.98 "Hg10 mi
11:53 AM83 °FScattered clouds.8 mph20%30.00 "Hg9 mi
10:53 AM78 °FScattered clouds.3 mph28%30.01 "Hg9 mi
9:53 AM75 °FBroken clouds.3 mph31%30.02 "Hg9 mi
8:53 AM71 °FBroken clouds.No wind36%30.01 "Hg9 mi
7:53 AM69 °FPassing clouds.No wind36%29.99 "Hg8 mi
6:53 AM67 °FPassing clouds.No wind39%29.97 "Hg10 mi
5:53 AM66 °FPassing clouds.No wind42%29.96 "Hg10 mi
4:53 AM65 °FPassing clouds.No wind44%29.95 "Hg10 mi
3:53 AM64 °FPassing clouds.3 mph47%29.94 "Hg10 mi
2:53 AM64 °FClear.No wind43%29.97 "Hg10 mi
1:53 AM67 °FClear.No wind37%29.97 "Hg10 mi
12:53 AM68 °FClear.5 mph33%29.98 "Hg10 mi
11:53 PM
Oct 24
69 °FClear.No wind27%29.97 "Hg10 mi
Weather by CustomWeather, © 2014

See weather overviewHow to use our weather pages